This is the latest recevied weather packets stored in our database for station/object IW5EIJ-10. If no packets are shown the sender has not sent any weather packets the latest 1 day(s).
| Time | Temp. | Humidity | Pressure | Rain* | Wind** | Luminosity | Snow |
|---|---|---|---|---|---|---|---|
| 1788626022 | 30° C | 37% | 1021.7 hPa | - | - | - | - |
| 1788624822 | 30° C | 35% | 1021.6 hPa | - | - | - | - |
| 1788623626 | 30.56° C | 34% | 1021.6 hPa | - | - | - | - |
| 1788622422 | 31.11° C | 34% | 1021.5 hPa | - | - | - | - |
| 1788621222 | 31.11° C | 38% | 1021.5 hPa | - | - | - | - |
| 1788620026 | 31.67° C | 37% | 1021.5 hPa | - | - | - | - |
| 1788618822 | 31.67° C | 36% | 1021.7 hPa | - | - | - | - |
| 1788617621 | 31.11° C | 36% | 1022.1 hPa | - | - | - | - |
| 1788616422 | 31.11° C | 36% | 1022 hPa | - | - | - | - |
| 1788615221 | 31.11° C | 33% | 1022.3 hPa | - | - | - | - |
| 1788614021 | 30° C | 32% | 1022.5 hPa | - | - | - | - |
| 1788612827 | 30° C | 39% | 1022.7 hPa | - | - | - | - |
| 1788611621 | 30° C | 41% | 1022.9 hPa | - | - | - | - |
| 1788610421 | 28.89° C | 41% | 1023 hPa | - | - | - | - |
| 1788609235 | 28.33° C | 43% | 1023.2 hPa | - | - | - | - |
| 1788608021 | 27.78° C | 44% | 1023.3 hPa | - | - | - | - |
| 1788606821 | 27.22° C | 45% | 1023.4 hPa | - | - | - | - |
| 1788605630 | 26.67° C | 46% | 1023.4 hPa | - | - | - | - |
| 1788604420 | 26.11° C | 47% | 1023.5 hPa | - | - | - | - |
| 1788603220 | 26.11° C | 46% | 1023.6 hPa | - | - | - | - |
| 1788602026 | 25° C | 48% | 1023.8 hPa | - | - | - | - |
| 1788600820 | 25° C | 49% | 1023.8 hPa | - | - | - | - |
| 1788599620 | 25° C | 48% | 1023.8 hPa | - | - | - | - |
| 1788598419 | 24.44° C | 52% | 1023.7 hPa | - | - | - | - |
| 1788597220 | 24.44° C | 53% | 1023.5 hPa | - | - | - | - |
* Rain since midnight (hover to see other rain measurements)
** Current wind speed in m/s (hover to see current wind gust speed)